FW2734 Weather Reports


time (UTC)temp
C
wind
direction
speed
KPH
gust
KPH
rain 1hr
cm
rain 24hr
cm
rain mn
cm
humidity
%
barometer
mb
20260507131050 12 110 3.2 9.7 0.00 0.00 0.00 73 1015.1
20260507130548 12 37 3.2 9.7 0.00 0.00 0.00 72 1015.1
20260507130057 12 0 1.6 4.8 0.00 0.00 0.00 71 1015.2
20260507125548 12 0 1.6 6.4 0.00 0.00 0.00 73 1015.2
20260507125051 12 2 1.6 6.4 0.00 0.00 0.00 74 1015.1
20260507124602 12 356 1.6 4.8 0.00 0.00 0.00 72 1015.2
20260507124048 12 0 0.0 4.8 0.00 0.00 0.00 73 1015.2
20260507123548 12 8 0.0 4.8 0.00 0.00 0.00 74 1015.1
20260507123054 11 68 3.2 4.8 0.00 0.00 0.00 73 1015.1
20260507122549 11 68 0.0 6.4 0.00 0.00 0.00 74 1015.2
20260507122051 11 3 1.6 9.7 0.00 0.00 0.00 74 1015.1
20260507121553 11 57 4.8 9.7 0.00 0.00 0.00 74 1015.1
20260507121050 11 38 4.8 9.7 0.00 0.00 0.00 73 1015.1
20260507120550 11 60 3.2 9.7 0.00 0.00 0.00 73 1015.1
20260507120052 11 0 3.2 9.7 0.00 0.00 0.00 73 1015.0
20260507115551 12 335 4.8 9.7 0.00 0.00 0.00 73 1015.0
20260507115051 12 302 1.6 4.8 0.00 0.00 0.00 71 1014.9
20260507114557 12 0 0.0 8.0 0.00 0.00 0.00 72 1015.0
20260507114048 12 205 1.6 8.0 0.00 0.00 0.00 73 1014.9
20260507113551 12 342 1.6 11.3 0.00 0.00 0.00 72 1015.0
20260507113052 11 46 4.8 11.3 0.00 0.00 0.00 71 1014.9
20260507112553 12 0 1.6 9.7 0.00 0.00 0.00 72 1014.8
20260507112049 12 13 3.2 9.7 0.00 0.00 0.00 72 1014.8
20260507111558 12 27 0.0 4.8 0.00 0.00 0.00 72 1014.9
20260507111055 12 60 0.0 8.0 0.00 0.00 0.00 74 1014.9
20260507110552 12 345 1.6 11.3 0.00 0.00 0.00 73 1015.0
20260507110053 11 4 1.6 11.3 0.00 0.00 0.00 73 1015.0
20260507105548 11 332 3.2 11.3 0.00 0.00 0.00 73 1015.0
20260507105049 11 3 3.2 11.3 0.00 0.00 0.00 75 1015.0
20260507104551 11 356 3.2 9.7 0.00 0.00 0.00 75 1015.0
20260507104048 11 15 3.2 9.7 0.00 0.00 0.00 75 1015.0
20260507103548 12 18 4.8 9.7 0.00 0.00 0.00 72 1015.0
20260507103052 12 51 0.0 9.7 0.00 0.00 0.00 76 1015.0
20260507102550 12 0 3.2 11.3 0.00 0.00 0.00 72 1015.0
20260507102049 13 94 4.8 11.3 0.00 0.00 0.00 75 1014.9
20260507101607 11 59 1.6 11.3 0.00 0.00 0.00 74 1014.9
20260507101049 12 66 4.8 11.3 0.00 0.00 0.00 77 1014.9
20260507100548 11 20 3.2 12.9 0.00 0.00 0.00 76 1014.9
20260507100053 11 50 4.8 14.5 0.00 0.00 0.00 78 1014.8
20260507095548 11 70 6.4 14.5 0.00 0.00 0.00 76 1014.8
20260507095050 12 63 8.0 14.5 0.00 0.00 0.00 74 1014.7
20260507094552 12 60 6.4 16.1 0.00 0.00 0.00 76 1014.7
20260507094048 11 64 6.4 16.1 0.00 0.00 0.00 76 1014.7
20260507093550 11 60 6.4 16.1 0.00 0.00 0.00 78 1014.7
20260507093056 10 57 9.7 17.7 0.00 0.00 0.00 78 1014.6
20260507092552 10 56 8.0 17.7 0.00 0.00 0.00 77 1014.7
20260507092052 10 79 9.7 16.1 0.00 0.00 0.00 78 1014.6
20260507091552 10 6 6.4 16.1 0.00 0.00 0.00 76 1014.6
20260507091053 11 8 9.7 16.1 0.00 0.00 0.00 78 1014.6
20260507090549 10 27 3.2 17.7 0.00 0.00 0.00 76 1014.5
20260507090111 11 30 9.7 17.7 0.00 0.00 0.00 78 1014.5
20260507085548 10 6 6.4 16.1 0.00 0.00 0.00 78 1014.4
20260507085052 11 332 8.0 14.5 0.00 0.00 0.00 78 1014.4
20260507084554 11 6 4.8 11.3 0.00 0.00 0.00 78 1014.3
20260507084053 10 354 6.4 12.9 0.00 0.00 0.00 79 1014.4
20260507083552 10 76 4.8 12.9 0.00 0.00 0.00 81 1014.3
20260507083053 10 53 4.8 12.9 0.00 0.00 0.00 82 1014.3
20260507082556 9 30 8.0 14.5 0.00 0.00 0.00 81 1014.4
20260507082053 9 56 6.4 14.5 0.00 0.00 0.00 82 1014.3
20260507081554 9 360 4.8 12.9 0.00 0.00 0.00 83 1014.2
20260507081052 8 6 6.4 12.9 0.00 0.00 0.00 83 1014.3
20260507080553 8 31 4.8 12.9 0.00 0.00 0.00 83 1014.2
20260507080053 8 25 3.2 12.9 0.00 0.00 0.00 84 1014.2
20260507075556 8 46 6.4 12.9 0.00 0.03 0.00 84 1014.1
20260507075052 8 6 6.4 11.3 0.00 0.03 0.00 85 1014.1
20260507074559 8 53 1.6 14.5 0.00 0.03 0.00 85 1014.1
20260507074051 8 23 1.6 14.5 0.00 0.03 0.00 86 1014.1
20260507073551 7 15 8.0 14.5 0.00 0.03 0.00 86 1014.1
20260507073051 7 340 4.8 11.3 0.00 0.03 0.00 86 1014.1
20260507072552 7 27 1.6 11.3 0.00 0.03 0.00 87 1014.0
20260507072051 7 356 6.4 12.9 0.00 0.03 0.00 87 1014.0
20260507071553 7 54 4.8 12.9 0.00 0.03 0.00 87 1013.9
20260507071052 7 2 6.4 14.5 0.00 0.03 0.00 87 1014.0
20260507070550 7 8 8.0 14.5 0.00 0.03 0.00 87 1013.8
20260507070054 7 319 4.8 14.5 0.00 0.03 0.00 87 1013.9
20260507065554 7 43 8.0 14.5 0.00 0.03 0.00 87 1013.8
20260507065052 7 11 8.0 14.5 0.00 0.03 0.00 87 1013.8
20260507064607 7 8 4.8 11.3 0.00 0.03 0.00 87 1013.8
20260507064052 7 60 6.4 11.3 0.00 0.03 0.00 87 1013.8
20260507063554 7 39 4.8 9.7 0.00 0.03 0.00 87 1013.7
20260507063057 7 306 4.8 11.3 0.00 0.03 0.00 87 1013.6
20260507062552 7 18 6.4 12.9 0.00 0.03 0.00 87 1013.6
20260507062051 7 15 6.4 12.9 0.00 0.03 0.00 87 1013.5
20260507061553 7 12 4.8 11.3 0.00 0.03 0.00 88 1013.6
20260507061051 7 34 4.8 9.7 0.00 0.03 0.00 88 1013.5
20260507060551 7 327 3.2 9.7 0.00 0.03 0.00 88 1013.5
20260507060053 7 18 4.8 11.3 0.00 0.03 0.00 89 1013.4
20260507055552 7 10 4.8 11.3 0.00 0.05 0.00 89 1013.3
20260507055053 7 9 8.0 11.3 0.00 0.05 0.00 89 1013.2
20260507054602 7 354 8.0 12.9 0.00 0.05 0.00 89 1013.2
20260507054052 7 23 8.0 12.9 0.00 0.05 0.00 89 1013.2
20260507053552 7 4 4.8 9.7 0.00 0.05 0.00 89 1013.2
20260507053052 7 345 3.2 9.7 0.00 0.05 0.00 90 1013.1
20260507052552 7 25 3.2 9.7 0.00 0.05 0.00 90 1013.0
20260507052052 6 356 4.8 9.7 0.00 0.05 0.00 90 1013.0
20260507051555 6 24 4.8 9.7 0.00 0.05 0.00 90 1012.9
20260507051052 6 4 4.8 11.3 0.00 0.05 0.00 90 1012.9
20260507050552 6 20 4.8 12.9 0.00 0.05 0.00 90 1012.9
20260507050053 6 20 6.4 12.9 0.00 0.05 0.00 91 1012.8
20260507045556 6 1 6.4 12.9 0.00 0.08 0.00 91 1012.7
20260507045051 6 343 3.2 9.7 0.00 0.08 0.00 91 1012.6
20260507044551 6 38 3.2 8.0 0.00 0.08 0.00 91 1012.5
20260507044052 6 360 1.6 8.0 0.00 0.08 0.00 91 1012.4
20260507043552 6 70 3.2 6.4 0.00 0.08 0.00 91 1012.3
20260507043052 6 18 3.2 6.4 0.00 0.08 0.00 91 1012.3
20260507042553 6 360 3.2 6.4 0.00 0.08 0.00 91 1012.3
20260507042052 6 15 1.6 6.4 0.00 0.08 0.00 91 1012.3
20260507041602 6 356 1.6 6.4 0.00 0.08 0.00 91 1012.2
20260507041054 6 1 3.2 8.0 0.00 0.08 0.00 91 1012.2
20260507040555 6 330 3.2 9.7 0.00 0.08 0.00 91 1012.1
20260507040055 6 348 1.6 9.7 0.00 0.08 0.00 91 1012.1
20260507035552 6 345 4.8 9.7 0.00 0.23 0.00 91 1012.0
20260507035052 6 340 1.6 6.4 0.00 0.23 0.00 91 1012.0
20260507034557 6 6 1.6 6.4 0.00 0.23 0.00 91 1012.0
20260507034052 6 0 1.6 6.4 0.00 0.23 0.00 91 1012.0
20260507033552 6 340 0.0 6.4 0.00 0.23 0.00 91 1011.9
20260507033052 6 298 1.6 6.4 0.00 0.23 0.00 91 1011.9
20260507032552 6 314 0.0 6.4 0.00 0.23 0.00 91 1011.8
20260507032053 6 11 0.0 6.4 0.00 0.23 0.00 91 1011.9
20260507031552 6 343 1.6 8.0 0.00 0.23 0.00 91 1011.8
20260507031054 6 360 1.6 12.9 0.00 0.23 0.00 91 1011.8
20260507030552 6 333 3.2 12.9 0.00 0.23 0.00 91 1011.7
20260507025551 6 4 3.2 9.7 0.00 0.41 0.00 91 1011.8
20260507025051 6 351 3.2 8.0 0.00 0.41 0.00 91 1011.7
20260507024604 6 348 1.6 6.4 0.00 0.41 0.00 91 1011.7
20260507024053 6 338 1.6 9.7 0.00 0.41 0.00 91 1011.7
20260507023551 6 340 1.6 9.7 0.00 0.41 0.00 91 1011.6
20260507023113 6 2 3.2 9.7 0.00 0.41 0.00 91 1011.6
20260507022551 6 339 3.2 8.0 0.00 0.41 0.00 91 1011.6
20260507022052 7 348 1.6 8.0 0.00 0.41 0.00 91 1011.6
20260507021556 6 4 1.6 8.0 0.00 0.41 0.00 91 1011.5
20260507021053 7 309 4.8 8.0 0.00 0.41 0.00 91 1011.5
20260507020552 7 323 1.6 6.4 0.00 0.41 0.00 91 1011.5
20260507020052 7 340 0.0 8.0 0.00 0.41 0.00 91 1011.5
20260507015551 7 326 0.0 8.0 0.00 0.53 0.00 91 1011.3
20260507015052 6 347 4.8 9.7 0.00 0.53 0.00 91 1011.3
20260507014606 6 350 4.8 9.7 0.00 0.53 0.00 91 1011.3
20260507014052 7 11 0.0 6.4 0.00 0.53 0.00 91 1011.3
20260507013551 7 0 0.0 8.0 0.00 0.53 0.00 91 1011.3
20260507013112 6 330 0.0 8.0 0.00 0.53 0.00 91 1011.3
20260507012551 6 342 1.6 8.0 0.00 0.53 0.00 91 1011.3
20260507012052 6 0 1.6 8.0 0.00 0.53 0.00 91 1011.3
20260507011559 6 339 1.6 6.4 0.00 0.53 0.00 91 1011.3
20260507011051 7 301 0.0 6.4 0.00 0.53 0.00 91 1011.3
20260507010552 7 310 1.6 8.0 0.00 0.53 0.00 91 1011.2
20260507010057 6 0 1.6 9.7 0.00 0.53 0.00 91 1011.2
20260507005552 6 329 1.6 9.7 0.00 0.79 0.00 91 1011.2
20260507005051 6 0 4.8 9.7 0.00 0.79 0.00 91 1011.1
20260507004559 7 335 3.2 9.7 0.00 0.79 0.00 91 1011.1
20260507004052 6 309 3.2 9.7 0.00 0.79 0.00 91 1011.1
20260507003552 6 297 1.6 6.4 0.00 0.79 0.00 91 1011.2
20260507003051 6 319 1.6 6.4 0.00 0.79 0.00 91 1011.1
20260507002552 6 0 3.2 8.0 0.00 0.79 0.00 90 1011.1
20260507002052 6 285 3.2 8.0 0.00 0.79 0.00 90 1011.1
20260507001621 6 282 3.2 8.0 0.00 0.79 0.00 90 1010.9
20260507001054 6 272 1.6 8.0 0.00 0.79 0.00 90 1011.0
20260507000551 6 288 3.2 8.0 0.00 0.79 0.00 90 1010.9
20260507000051 6 290 1.6 8.0 0.00 0.79 0.00 90 1010.9
20260506235552 6 278 3.2 8.0 0.00 1.17 0.00 89 1010.9
20260506235052 6 240 3.2 8.0 0.00 1.17 0.00 89 1010.9
20260506234552 7 293 3.2 9.7 0.00 1.17 0.00 89 1010.9
20260506234054 7 284 3.2 9.7 0.00 1.17 0.00 89 1010.9
20260506233552 7 293 3.2 8.0 0.00 1.17 0.00 89 1011.0
20260506233052 7 297 4.8 9.7 0.00 1.17 0.00 88 1010.9
20260506232551 7 285 4.8 9.7 0.00 1.17 0.00 89 1010.9
20260506232049 7 289 3.2 8.0 0.00 1.17 0.00 89 1010.9
20260506231554 7 256 1.6 6.4 0.00 1.17 0.00 89 1010.8
20260506231053 7 275 3.2 6.4 0.00 1.17 0.00 88 1010.8
20260506230552 7 266 1.6 6.4 0.00 1.17 0.00 88 1010.9
20260506230055 7 256 1.6 8.0 0.00 1.17 0.00 88 1010.9
20260506225555 7 248 1.6 8.0 0.00 1.68 0.00 88 1010.9
20260506225052 6 290 3.2 8.0 0.00 1.68 0.00 88 1010.8
20260506224553 6 290 1.6 8.0 0.00 1.68 0.00 89 1010.8
20260506224052 6 267 3.2 8.0 0.00 1.68 0.00 88 1010.8
20260506223551 6 290 1.6 8.0 0.00 1.68 0.00 89 1010.7
20260506223104 6 313 3.2 8.0 0.00 1.68 0.00 89 1010.7
20260506222552 6 307 1.6 8.0 0.00 1.68 0.00 89 1010.7
20260506222054 6 304 1.6 8.0 0.00 1.68 0.00 89 1010.7
20260506221559 6 0 1.6 8.0 0.00 1.68 0.00 89 1010.7
20260506221053 6 343 1.6 6.4 0.00 1.68 0.00 89 1010.7
20260506220548 6 302 1.6 6.4 0.00 1.68 0.00 89 1010.7
20260506220054 7 21 0.0 4.8 0.00 1.68 0.00 89 1010.6
20260506215552 7 322 1.6 4.8 0.00 1.80 1.68 89 1010.6
20260506215051 6 0 1.6 4.8 0.00 1.80 1.68 89 1010.5
20260506214558 6 329 0.0 6.4 0.00 1.80 1.68 89 1010.3
20260506214050 6 5 1.6 6.4 0.00 1.80 1.68 89 1010.2
20260506213550 6 6 3.2 6.4 0.00 1.80 1.68 88 1010.3
20260506213053 6 304 1.6 6.4 0.00 1.80 1.68 88 1010.2
20260506212552 6 0 1.6 8.0 0.00 1.80 1.68 88 1010.2
20260506212056 7 323 1.6 8.0 0.00 1.80 1.68 88 1010.1
20260506211551 6 8 4.8 8.0 0.00 1.80 1.68 88 1009.9
20260506211052 7 8 3.2 9.7 0.00 1.80 1.68 88 1010.0
20260506210552 7 4 3.2 9.7 0.00 1.80 1.68 88 1010.0
20260506210052 7 11 3.2 9.7 0.00 1.80 1.68 87 1010.0
20260506205551 7 42 4.8 8.0 0.00 1.96 1.68 88 1010.0
20260506205051 7 356 3.2 6.4 0.00 1.96 1.68 88 1009.9
20260506204552 7 0 0.0 6.4 0.00 1.96 1.68 87 1009.9
20260506204052 7 27 0.0 6.4 0.00 1.96 1.68 87 1009.9
20260506203551 7 3 3.2 6.4 0.00 1.96 1.68 87 1009.9
20260506203055 7 0 1.6 9.7 0.00 1.96 1.68 87 1009.9
20260506202551 7 11 1.6 9.7 0.00 1.96 1.68 87 1009.9
20260506202048 7 5 1.6 9.7 0.00 1.96 1.68 87 1009.8
20260506201552 7 1 0.0 6.4 0.00 1.96 1.68 87 1009.8
20260506201053 7 9 1.6 8.0 0.00 1.96 1.68 87 1009.7
20260506200552 7 1 3.2 9.7 0.00 1.96 1.68 87 1009.6
20260506200136 7 360 3.2 12.9 0.00 1.96 1.68 87 1009.5
20260506195552 7 347 3.2 14.5 0.00 2.18 1.68 87 1009.4
20260506195052 7 356 8.0 14.5 0.00 2.18 1.68 87 1009.3
20260506194603 7 19 4.8 9.7 0.00 2.18 1.68 88 1009.3
20260506194051 7 19 3.2 8.0 0.00 2.18 1.68 88 1009.2
20260506193551 8 0 4.8 11.3 0.00 2.18 1.68 87 1009.1
20260506193054 8 18 1.6 12.9 0.00 2.18 1.68 87 1009.1
20260506192553 8 349 4.8 12.9 0.00 2.18 1.68 87 1009.1
20260506192054 8 333 1.6 11.3 0.00 2.18 1.68 87 1009.0
20260506191552 8 311 4.8 11.3 0.00 2.18 1.68 87 1008.9
20260506191052 8 335 1.6 11.3 0.00 2.18 1.68 87 1008.8
20260506190553 8 338 3.2 14.5 0.00 2.18 1.68 87 1008.7
20260506190052 8 342 4.8 16.1 0.00 2.18 1.68 87 1008.6
20260506185553 8 328 3.2 16.1 0.00 2.31 1.68 87 1008.5
20260506185052 8 347 4.8 16.1 0.00 2.31 1.68 87 1008.5
20260506184556 8 0 4.8 16.1 0.00 2.31 1.68 86 1008.5
20260506184053 8 12 4.8 17.7 0.00 2.31 1.68 87 1008.5
20260506183552 8 355 6.4 17.7 0.00 2.31 1.68 86 1008.5
20260506183054 8 29 8.0 17.7 0.00 2.31 1.68 86 1008.5
20260506182551 8 333 4.8 11.3 0.00 2.31 1.68 86 1008.5
20260506182053 8 25 4.8 16.1 0.00 2.31 1.68 86 1008.5
20260506181556 8 0 6.4 16.1 0.00 2.31 1.68 86 1008.5
20260506181053 8 3 4.8 11.3 0.00 2.31 1.68 86 1008.3
20260506180552 8 5 3.2 11.3 0.00 2.31 1.68 86 1008.4
20260506180058 8 338 3.2 11.3 0.00 2.31 1.68 86 1008.4
20260506175553 8 319 4.8 11.3 0.00 2.36 1.68 86 1008.3
20260506175051 8 305 1.6 11.3 0.00 2.36 1.68 86 1008.3
20260506174553 8 10 4.8 11.3 0.00 2.36 1.68 86 1008.3
20260506174051 8 355 6.4 11.3 0.00 2.36 1.68 86 1008.3
20260506173551 8 322 4.8 11.3 0.00 2.36 1.68 86 1008.2
20260506173116 8 36 3.2 9.7 0.00 2.36 1.68 86 1008.2
20260506172555 8 16 3.2 14.5 0.00 2.36 1.68 85 1008.0
20260506172048 8 342 6.4 14.5 0.00 2.36 1.68 85 1008.0
20260506171603 8 5 4.8 12.9 0.00 2.36 1.68 85 1007.9
20260506171051 8 356 6.4 19.3 0.00 2.36 1.68 85 1007.8
20260506170549 8 34 8.0 19.3 0.00 2.36 1.68 85 1007.8
20260506170059 8 2 8.0 19.3 0.00 2.36 1.68 85 1007.8
20260506165551 8 6 9.7 17.7 0.00 2.46 1.68 86 1007.9
20260506165051 9 1 9.7 17.7 0.00 2.46 1.68 86 1007.8
20260506164552 9 291 8.0 17.7 0.00 2.46 1.68 86 1007.9
20260506164051 9 329 9.7 17.7 0.00 2.46 1.68 86 1007.9
20260506163551 9 8 6.4 17.7 0.00 2.46 1.68 86 1007.8
20260506163107 9 345 8.0 20.9 0.00 2.46 1.68 86 1007.8
20260506162555 9 354 6.4 20.9 0.00 2.46 1.68 86 1007.8
20260506162053 9 5 8.0 20.9 0.00 2.46 1.68 86 1007.8
20260506161556 9 1 8.0 19.3 0.00 2.46 1.68 85 1007.8
20260506161048 9 28 8.0 14.5 0.00 2.46 1.68 85 1007.8
20260506160553 10 58 8.0 20.9 0.00 2.46 1.68 85 1007.8
20260506160107 10 25 6.4 20.9 0.00 2.46 1.68 85 1007.8
20260506155548 10 39 12.9 20.9 0.00 2.54 1.68 84 1007.8
20260506155048 10 356 11.3 20.9 0.00 2.54 1.68 84 1007.8
20260506154553 10 11 9.7 20.9 0.00 2.54 1.68 85 1007.7
20260506154052 10 360 11.3 20.9 0.00 2.54 1.68 85 1007.7
20260506153552 10 30 8.0 19.3 0.00 2.54 1.68 86 1007.7
20260506153057 10 333 9.7 22.5 0.00 2.54 1.68 85 1007.6
20260506152552 10 351 9.7 22.5 0.00 2.54 1.68 84 1007.6
20260506152048 10 25 12.9 20.9 0.00 2.54 1.68 85 1007.6
20260506151554 10 4 9.7 22.5 0.00 2.54 1.68 85 1007.5
20260506151051 10 4 11.3 22.5 0.00 2.54 1.68 84 1007.5
20260506150549 10 333 8.0 16.1 0.00 2.54 1.68 84 1007.5
20260506150104 10 16 8.0 20.9 0.00 2.54 1.68 84 1007.5
20260506145555 10 73 8.0 20.9 0.00 2.69 1.68 83 1007.5
20260506145048 10 5 9.7 24.1 0.00 2.69 1.68 83 1007.4
20260506144553 10 356 9.7 24.1 0.00 2.69 1.68 84 1007.4
20260506144048 10 360 12.9 24.1 0.00 2.69 1.68 85 1007.4
20260506143550 10 329 9.7 17.7 0.00 2.69 1.68 86 1007.4
20260506143055 10 356 6.4 17.7 0.00 2.69 1.68 86 1007.6
20260506142548 10 338 6.4 19.3 0.00 2.69 1.68 85 1007.5
20260506142050 10 290 6.4 19.3 0.00 2.69 1.68 85 1007.5
20260506141549 10 344 8.0 19.3 0.00 2.69 1.68 85 1007.5
20260506141052 10 326 6.4 16.1 0.00 2.69 1.68 86 1007.4
20260506140555 10 343 4.8 19.3 0.00 2.69 1.68 87 1007.4
20260506140053 10 27 6.4 19.3 0.00 2.69 1.68 87 1007.5
20260506135551 9 332 11.3 19.3 0.00 2.87 1.68 86 1007.4
20260506135051 10 11 4.8 17.7 0.00 2.87 1.68 86 1007.3
20260506134615 10 4 8.0 17.7 0.00 2.87 1.68 86 1007.4
20260506134055 10 348 11.3 17.7 0.00 2.87 1.68 85 1007.3
20260506133552 10 338 4.8 19.3 0.00 2.87 1.68 85 1007.4
20260506133051 10 331 9.7 19.3 0.00 2.87 1.68 85 1007.3
20260506132551 10 34 9.7 19.3 0.00 2.87 1.68 85 1007.3
20260506132051 10 352 8.0 17.7 0.00 2.87 1.68 87 1007.3
20260506131607 10 341 9.7 17.7 0.00 2.87 1.68 86 1007.3